RYR465X LICA-LIME

Flight info

Callsign RYR465X
Flight time 1h 27m
Altitude 38000
Route ARBUM DCT EVINO DCT TEA DCT AMTEL DCT IBRID DCT KUGIX L995 OSBUL
Aircraft B38M/M-SDE1FGHILORVWXY/HB1

Departure

Time 2026-04-20 19:36
Airport Lamezia Terme Sant'Eufemia International Airport (LICA)

Arrival

Time 2026-04-20 21:03
Airport Il Caravaggio International Airport (LIME)
Time Latitude Longitude Altitude Speed Heading
2026-04-20 19:10 38.90869 16.24531 34 ft 0 kts 56°
2026-04-20 19:31 38.90868 16.24534 34 ft 1 kts 106°
2026-04-20 19:31 38.90865 16.24535 34 ft 0 kts 150°
2026-04-20 19:31 38.90862 16.24534 34 ft 1 kts 185°
2026-04-20 19:31 38.90816 16.24537 34 ft 10 kts 160°
2026-04-20 19:32 38.90750 16.24597 34 ft 13 kts 141°
2026-04-20 19:32 38.90712 16.24677 35 ft 10 kts 97°
2026-04-20 19:32 38.90701 16.24785 35 ft 14 kts 97°
2026-04-20 19:32 38.90685 16.24915 35 ft 16 kts 100°
2026-04-20 19:33 38.90667 16.25059 35 ft 17 kts 99°
2026-04-20 19:33 38.90650 16.25212 36 ft 18 kts 98°
2026-04-20 19:33 38.90630 16.25388 35 ft 22 kts 98°
2026-04-20 19:33 38.90607 16.25595 35 ft 24 kts 98°
2026-04-20 19:34 38.90583 16.25809 34 ft 24 kts 100°
2026-04-20 19:34 38.90554 16.26022 36 ft 25 kts 98°
2026-04-20 19:34 38.90500 16.26195 34 ft 22 kts 144°
2026-04-20 19:34 38.90374 16.26279 35 ft 15 kts 165°
2026-04-20 19:35 38.90312 16.26239 37 ft 7 kts 251°
2026-04-20 19:35 38.90314 16.26171 37 ft 10 kts 279°
2026-04-20 19:35 38.90349 16.25856 34 ft 75 kts 278°
2026-04-20 19:35 38.90465 16.24869 38 ft 149 kts 278°
2026-04-20 19:36 38.90654 16.23400 526 ft 175 kts 279°
2026-04-20 19:36 38.90866 16.21885 1701 ft 164 kts 279°
2026-04-20 19:36 38.91050 16.20314 2303 ft 192 kts 279°
2026-04-20 19:36 38.91246 16.18492 2812 ft 219 kts 279°
2026-04-20 19:37 38.91467 16.16464 3521 ft 239 kts 279°
2026-04-20 19:37 38.91708 16.14273 4270 ft 256 kts 279°
2026-04-20 19:37 38.92252 16.12112 5325 ft 255 kts 303°
2026-04-20 19:37 38.93349 16.10305 6360 ft 260 kts 308°
2026-04-20 19:38 38.94541 16.08511 7257 ft 266 kts 316°
2026-04-20 19:38 38.96051 16.07107 8224 ft 271 kts 327°
2026-04-20 19:38 38.97647 16.05780 9163 ft 275 kts 326°
2026-04-20 19:38 38.99256 16.04420 10107 ft 279 kts 326°
2026-04-20 19:39 39.00907 16.03010 10727 ft 294 kts 325°
2026-04-20 19:39 39.02654 16.01507 11245 ft 309 kts 325°
2026-04-20 19:39 39.04471 15.99938 11964 ft 316 kts 325°
2026-04-20 19:39 39.06300 15.98356 12885 ft 318 kts 324°
2026-04-20 19:40 39.08146 15.96759 13731 ft 321 kts 324°
2026-04-20 19:40 39.10007 15.95147 14476 ft 325 kts 324°
2026-04-20 19:40 39.11889 15.93516 15216 ft 327 kts 324°
2026-04-20 19:40 39.13785 15.91871 15940 ft 330 kts 324°
2026-04-20 19:41 39.15700 15.90209 16650 ft 333 kts 324°
2026-04-20 19:41 39.16979 15.89098 17118 ft 335 kts 324°
2026-04-20 19:41 39.18921 15.87410 17803 ft 338 kts 324°
2026-04-20 19:41 39.20881 15.85706 18469 ft 341 kts 324°
2026-04-20 19:42 39.22856 15.83986 19046 ft 344 kts 324°
2026-04-20 19:42 39.24844 15.82255 19615 ft 346 kts 324°
2026-04-20 19:42 39.26849 15.80508 20180 ft 349 kts 323°
2026-04-20 19:42 39.28868 15.78747 20740 ft 352 kts 323°
2026-04-20 19:43 39.31594 15.76368 21480 ft 355 kts 323°
2026-04-20 19:43 39.33648 15.74574 22027 ft 358 kts 323°
2026-04-20 19:43 39.35714 15.72767 22570 ft 360 kts 323°
2026-04-20 19:43 39.37794 15.70948 23096 ft 363 kts 323°
2026-04-20 19:44 39.39179 15.69736 23440 ft 365 kts 323°
2026-04-20 19:44 39.41293 15.67885 23899 ft 368 kts 323°
2026-04-20 19:44 39.43413 15.66027 24331 ft 370 kts 323°
2026-04-20 19:44 39.45547 15.64155 24756 ft 372 kts 323°
2026-04-20 19:45 39.47696 15.62268 25172 ft 374 kts 323°
2026-04-20 19:45 39.50564 15.59748 25714 ft 377 kts 323°
2026-04-20 19:45 39.52033 15.58457 25988 ft 379 kts 323°
2026-04-20 19:45 39.54931 15.55906 26525 ft 382 kts 323°
2026-04-20 19:46 39.56417 15.54597 26792 ft 383 kts 323°
2026-04-20 19:46 39.58627 15.52651 27179 ft 385 kts 323°
2026-04-20 19:46 39.60848 15.50692 27560 ft 387 kts 323°
2026-04-20 19:46 39.63082 15.48720 27939 ft 390 kts 323°
2026-04-20 19:47 39.65325 15.46738 28310 ft 392 kts 323°
2026-04-20 19:47 39.67584 15.44742 28669 ft 394 kts 323°
2026-04-20 19:47 39.69822 15.42761 29021 ft 396 kts 323°
2026-04-20 19:47 39.71858 15.40959 29333 ft 398 kts 323°
2026-04-20 19:48 39.74149 15.38929 29674 ft 400 kts 323°
2026-04-20 19:48 39.76453 15.36885 30013 ft 402 kts 323°
2026-04-20 19:48 39.78770 15.34829 30308 ft 404 kts 323°
2026-04-20 19:48 39.81056 15.32799 30587 ft 406 kts 323°
2026-04-20 19:49 39.83345 15.30764 30873 ft 407 kts 323°
2026-04-20 19:49 39.85687 15.28680 31146 ft 409 kts 323°
2026-04-20 19:49 39.88045 15.26580 31425 ft 411 kts 323°
2026-04-20 19:49 39.90406 15.24476 31706 ft 412 kts 323°
2026-04-20 19:50 39.92778 15.22360 31981 ft 414 kts 323°
2026-04-20 19:50 39.95162 15.20231 32237 ft 416 kts 323°
2026-04-20 19:50 39.97552 15.18096 32504 ft 418 kts 323°
2026-04-20 19:50 39.99952 15.15949 32795 ft 418 kts 323°
2026-04-20 19:51 40.02347 15.13806 33155 ft 417 kts 323°
2026-04-20 19:51 40.04741 15.11662 33531 ft 416 kts 323°
2026-04-20 19:51 40.07125 15.09524 33898 ft 415 kts 323°
2026-04-20 19:51 40.09500 15.07393 34221 ft 414 kts 323°
2026-04-20 19:52 40.11872 15.05263 34518 ft 414 kts 322°
2026-04-20 19:52 40.14241 15.03134 34813 ft 413 kts 322°
2026-04-20 19:52 40.16605 15.01007 35095 ft 412 kts 322°
2026-04-20 19:52 40.18964 14.98883 35382 ft 411 kts 322°
2026-04-20 19:53 40.21315 14.96764 35652 ft 410 kts 322°
2026-04-20 19:53 40.23437 14.94850 35891 ft 410 kts 322°
2026-04-20 19:53 40.25782 14.92734 36137 ft 409 kts 322°
2026-04-20 19:53 40.28125 14.90617 36403 ft 409 kts 322°
2026-04-20 19:54 40.30431 14.88531 36636 ft 408 kts 322°
2026-04-20 19:54 40.32798 14.86388 36872 ft 407 kts 322°
2026-04-20 19:54 40.35123 14.84282 37105 ft 407 kts 322°
2026-04-20 19:54 40.37451 14.82172 37316 ft 406 kts 322°
2026-04-20 19:55 40.39775 14.80063 37551 ft 406 kts 322°
2026-04-20 19:55 40.42093 14.77959 37763 ft 405 kts 322°
2026-04-20 19:55 40.44406 14.75856 37961 ft 404 kts 322°
2026-04-20 19:56 40.48996 14.71678 38041 ft 403 kts 322°
2026-04-20 19:56 40.53599 14.67482 38043 ft 402 kts 322°
2026-04-20 19:57 40.58197 14.63283 38041 ft 402 kts 322°
2026-04-20 19:57 40.62793 14.59079 38042 ft 402 kts 322°
2026-04-20 19:58 40.67390 14.54866 38045 ft 403 kts 322°
2026-04-20 19:58 40.71984 14.50650 38024 ft 402 kts 322°
2026-04-20 19:59 40.76565 14.46437 38027 ft 402 kts 322°
2026-04-20 19:59 40.81148 14.42216 38020 ft 401 kts 322°
2026-04-20 20:00 40.85725 14.37993 38019 ft 401 kts 322°
2026-04-20 20:00 40.90295 14.33769 38017 ft 400 kts 322°
2026-04-20 20:01 40.94854 14.29549 38021 ft 400 kts 322°
2026-04-20 20:01 40.99411 14.25322 38024 ft 400 kts 322°
2026-04-20 20:02 41.03967 14.21090 38024 ft 400 kts 321°
2026-04-20 20:02 41.08522 14.16851 38023 ft 400 kts 321°
2026-04-20 20:03 41.13070 14.12611 38023 ft 399 kts 321°
2026-04-20 20:03 41.17618 14.08364 38026 ft 399 kts 321°
2026-04-20 20:04 41.22157 14.04118 38026 ft 399 kts 321°
2026-04-20 20:04 41.26695 13.99867 38024 ft 399 kts 321°
2026-04-20 20:05 41.31025 13.95329 38034 ft 395 kts 314°
2026-04-20 20:05 41.35108 13.90410 38024 ft 397 kts 315°
2026-04-20 20:06 41.39201 13.85565 38022 ft 396 kts 316°
2026-04-20 20:06 41.43329 13.80687 38026 ft 397 kts 315°
2026-04-20 20:07 41.47455 13.75806 38026 ft 397 kts 315°
2026-04-20 20:07 41.51580 13.70917 38029 ft 396 kts 315°
2026-04-20 20:08 41.55699 13.66025 38030 ft 396 kts 315°
2026-04-20 20:08 41.59816 13.61128 38026 ft 396 kts 315°
2026-04-20 20:09 41.63929 13.56228 38028 ft 396 kts 315°
2026-04-20 20:09 41.68037 13.51324 38034 ft 396 kts 315°
2026-04-20 20:10 41.72143 13.46413 38032 ft 396 kts 315°
2026-04-20 20:10 41.76246 13.41498 38031 ft 395 kts 315°
2026-04-20 20:11 41.80344 13.36582 38002 ft 394 kts 315°
2026-04-20 20:11 41.84430 13.31666 38018 ft 395 kts 315°
2026-04-20 20:12 41.88518 13.26742 38012 ft 395 kts 315°
2026-04-20 20:12 41.92604 13.21812 38025 ft 396 kts 315°
2026-04-20 20:13 41.98729 13.14406 38022 ft 396 kts 315°
2026-04-20 20:13 42.02813 13.09455 38025 ft 395 kts 315°
2026-04-20 20:14 42.06894 13.04500 38018 ft 395 kts 315°
2026-04-20 20:14 42.10976 12.99534 38007 ft 395 kts 315°
2026-04-20 20:15 42.15059 12.94559 38001 ft 396 kts 315°
2026-04-20 20:15 42.19374 12.89951 38038 ft 397 kts 321°
2026-04-20 20:16 42.23814 12.85593 38007 ft 397 kts 320°
2026-04-20 20:16 42.28260 12.81164 38021 ft 397 kts 320°
2026-04-20 20:17 42.32703 12.76720 38003 ft 397 kts 320°
2026-04-20 20:17 42.37137 12.72277 38021 ft 396 kts 320°
2026-04-20 20:18 42.41575 12.67821 37997 ft 398 kts 320°
2026-04-20 20:18 42.46013 12.63357 38000 ft 397 kts 320°
2026-04-20 20:19 42.50280 12.59059 38002 ft 397 kts 320°
2026-04-20 20:19 42.54714 12.54583 37994 ft 398 kts 320°
2026-04-20 20:20 42.59090 12.50158 37991 ft 397 kts 320°
2026-04-20 20:20 42.63522 12.45669 37997 ft 398 kts 320°
2026-04-20 20:21 42.67959 12.41166 37986 ft 398 kts 320°
2026-04-20 20:21 42.72400 12.36653 37986 ft 398 kts 320°
2026-04-20 20:22 42.76839 12.32130 37974 ft 399 kts 320°
2026-04-20 20:22 42.81282 12.27596 37974 ft 400 kts 320°
2026-04-20 20:23 42.85696 12.23084 37978 ft 399 kts 319°
2026-04-20 20:23 42.90140 12.18533 37978 ft 400 kts 320°
2026-04-20 20:24 42.94552 12.14007 37977 ft 400 kts 319°
2026-04-20 20:24 42.99022 12.09412 37976 ft 399 kts 319°
2026-04-20 20:25 43.03433 12.04869 37980 ft 400 kts 319°
2026-04-20 20:25 43.07869 12.00292 37972 ft 399 kts 319°
2026-04-20 20:26 43.12303 11.95710 37972 ft 399 kts 319°
2026-04-20 20:26 43.16732 11.91122 37970 ft 399 kts 319°
2026-04-20 20:27 43.21160 11.86529 37970 ft 399 kts 319°
2026-04-20 20:27 43.25582 11.81931 37967 ft 399 kts 319°
2026-04-20 20:28 43.30005 11.77326 37977 ft 399 kts 319°
2026-04-20 20:28 43.34423 11.72716 37964 ft 399 kts 319°
2026-04-20 20:29 43.38840 11.68099 37966 ft 399 kts 319°
2026-04-20 20:29 43.43253 11.63478 37974 ft 399 kts 319°
2026-04-20 20:30 43.47666 11.58846 37961 ft 399 kts 319°
2026-04-20 20:30 43.51335 11.54991 37967 ft 399 kts 319°
2026-04-20 20:31 43.55744 11.50348 37962 ft 399 kts 319°
2026-04-20 20:31 43.60152 11.45699 37969 ft 399 kts 319°
2026-04-20 20:32 43.64558 11.41042 37961 ft 399 kts 319°
2026-04-20 20:32 43.68963 11.36378 37961 ft 399 kts 319°
2026-04-20 20:33 43.73366 11.31706 37961 ft 399 kts 319°
2026-04-20 20:33 43.77763 11.27033 37960 ft 399 kts 319°
2026-04-20 20:34 43.82155 11.22356 37964 ft 397 kts 319°
2026-04-20 20:34 43.86516 11.17703 37964 ft 394 kts 319°
2026-04-20 20:35 43.88678 11.15392 37337 ft 393 kts 319°
2026-04-20 20:35 43.90889 11.13115 36394 ft 401 kts 323°
2026-04-20 20:35 43.93252 11.11068 35806 ft 398 kts 323°
2026-04-20 20:35 43.95564 11.09020 35465 ft 390 kts 322°
2026-04-20 20:36 43.97798 11.07018 35041 ft 386 kts 322°
2026-04-20 20:36 44.00039 11.04996 34532 ft 383 kts 322°
2026-04-20 20:36 44.02273 11.02973 34054 ft 381 kts 322°
2026-04-20 20:36 44.04489 11.00966 33498 ft 379 kts 322°
2026-04-20 20:37 44.06687 10.98972 32997 ft 376 kts 322°
2026-04-20 20:37 44.08863 10.96997 32532 ft 372 kts 321°
2026-04-20 20:37 44.11019 10.95037 32088 ft 368 kts 321°
2026-04-20 20:37 44.13156 10.93094 31656 ft 365 kts 321°
2026-04-20 20:38 44.15278 10.91162 30961 ft 366 kts 321°
2026-04-20 20:38 44.17419 10.89211 30177 ft 370 kts 321°
2026-04-20 20:38 44.19580 10.87239 29285 ft 373 kts 321°
2026-04-20 20:38 44.21761 10.85250 28397 ft 377 kts 322°
2026-04-20 20:39 44.23954 10.83246 27678 ft 376 kts 322°
2026-04-20 20:39 44.26129 10.81258 27239 ft 371 kts 322°
2026-04-20 20:39 44.28275 10.79294 26825 ft 366 kts 322°
2026-04-20 20:39 44.30392 10.77354 26406 ft 362 kts 322°
2026-04-20 20:40 44.32485 10.75434 25994 ft 358 kts 322°
2026-04-20 20:40 44.34559 10.73531 25578 ft 355 kts 322°
2026-04-20 20:40 44.36610 10.71648 25186 ft 351 kts 322°
2026-04-20 20:40 44.38640 10.69781 24790 ft 347 kts 322°
2026-04-20 20:41 44.40650 10.67932 24408 ft 344 kts 322°
2026-04-20 20:41 44.42638 10.66102 24032 ft 341 kts 322°
2026-04-20 20:41 44.44612 10.64282 23650 ft 339 kts 322°
2026-04-20 20:41 44.46571 10.62476 23229 ft 336 kts 322°
2026-04-20 20:42 44.48516 10.60680 22826 ft 333 kts 322°
2026-04-20 20:42 44.50440 10.58902 22463 ft 329 kts 322°
2026-04-20 20:42 44.52340 10.57146 22108 ft 326 kts 322°
2026-04-20 20:42 44.54192 10.55433 21768 ft 322 kts 322°
2026-04-20 20:43 44.56052 10.53710 21409 ft 319 kts 322°
2026-04-20 20:43 44.57896 10.52001 21055 ft 316 kts 322°
2026-04-20 20:43 44.59720 10.50310 20727 ft 313 kts 322°
2026-04-20 20:43 44.61526 10.48635 20387 ft 309 kts 322°
2026-04-20 20:44 44.63309 10.46978 20062 ft 307 kts 323°
2026-04-20 20:44 44.65082 10.45330 19735 ft 304 kts 323°
2026-04-20 20:44 44.66833 10.43701 19409 ft 300 kts 323°
2026-04-20 20:44 44.68568 10.42086 19097 ft 298 kts 322°
2026-04-20 20:45 44.70287 10.40485 18782 ft 295 kts 323°
2026-04-20 20:45 44.71988 10.38899 18465 ft 292 kts 323°
2026-04-20 20:45 44.73676 10.37324 18148 ft 290 kts 323°
2026-04-20 20:45 44.75348 10.35763 17808 ft 287 kts 323°
2026-04-20 20:46 44.77003 10.34217 17488 ft 284 kts 322°
2026-04-20 20:46 44.78636 10.32690 17183 ft 280 kts 322°
2026-04-20 20:46 44.80243 10.31186 16893 ft 276 kts 322°
2026-04-20 20:46 44.81847 10.29705 16575 ft 279 kts 326°
2026-04-20 20:47 44.83665 10.28652 16220 ft 286 kts 336°
2026-04-20 20:47 44.85558 10.27735 15928 ft 290 kts 336°
2026-04-20 20:47 44.87470 10.26809 15648 ft 291 kts 336°
2026-04-20 20:47 44.89386 10.25883 15359 ft 290 kts 336°
2026-04-20 20:48 44.91288 10.24964 15049 ft 288 kts 336°
2026-04-20 20:48 44.93176 10.24052 14746 ft 286 kts 336°
2026-04-20 20:48 44.95046 10.23148 14444 ft 283 kts 336°
2026-04-20 20:48 44.96903 10.22251 14146 ft 281 kts 336°
2026-04-20 20:49 44.98747 10.21358 13852 ft 279 kts 336°
2026-04-20 20:49 45.00576 10.20472 13533 ft 277 kts 336°
2026-04-20 20:49 45.02387 10.19595 13219 ft 274 kts 337°
2026-04-20 20:49 45.04187 10.18722 12916 ft 273 kts 337°
2026-04-20 20:50 45.06000 10.17842 12617 ft 278 kts 337°
2026-04-20 20:50 45.07849 10.16944 12322 ft 283 kts 338°
2026-04-20 20:50 45.09711 10.16040 12025 ft 283 kts 338°
2026-04-20 20:50 45.11571 10.15135 11711 ft 283 kts 338°
2026-04-20 20:51 45.13435 10.14228 11420 ft 283 kts 338°
2026-04-20 20:51 45.15297 10.13321 11124 ft 283 kts 338°
2026-04-20 20:51 45.17158 10.12414 10816 ft 282 kts 338°
2026-04-20 20:51 45.19008 10.11512 10521 ft 280 kts 338°
2026-04-20 20:52 45.20846 10.10615 10222 ft 278 kts 339°
2026-04-20 20:52 45.22670 10.09725 9977 ft 275 kts 339°
2026-04-20 20:52 45.24458 10.08851 9749 ft 271 kts 339°
2026-04-20 20:52 45.26234 10.07983 9426 ft 269 kts 339°
2026-04-20 20:53 45.27998 10.07120 9132 ft 267 kts 339°
2026-04-20 20:53 45.29745 10.06264 8824 ft 265 kts 339°
2026-04-20 20:53 45.31478 10.05415 8546 ft 262 kts 339°
2026-04-20 20:53 45.33195 10.04573 8273 ft 260 kts 339°
2026-04-20 20:54 45.34873 10.03750 8006 ft 258 kts 339°
2026-04-20 20:54 45.36561 10.02922 7726 ft 255 kts 339°
2026-04-20 20:54 45.38235 10.02100 7452 ft 254 kts 339°
2026-04-20 20:54 45.39897 10.01283 7190 ft 252 kts 340°
2026-04-20 20:55 45.41545 10.00473 6923 ft 250 kts 340°
2026-04-20 20:55 45.43174 9.99672 6752 ft 245 kts 340°
2026-04-20 20:55 45.44759 9.98892 6628 ft 237 kts 340°
2026-04-20 20:55 45.46293 9.98136 6503 ft 229 kts 340°
2026-04-20 20:56 45.47766 9.97410 6411 ft 219 kts 340°
2026-04-20 20:56 45.49188 9.96753 6290 ft 212 kts 348°
2026-04-20 20:56 45.50679 9.96860 6047 ft 221 kts 12°
2026-04-20 20:56 45.52158 9.97357 5852 ft 218 kts 12°
2026-04-20 20:57 45.53633 9.97870 5543 ft 219 kts 13°
2026-04-20 20:57 45.55116 9.98404 5199 ft 221 kts 13°
2026-04-20 20:57 45.56604 9.98952 4872 ft 221 kts 13°
2026-04-20 20:57 45.58089 9.99505 4590 ft 219 kts 14°
2026-04-20 20:58 45.59573 9.99652 4348 ft 211 kts 346°
2026-04-20 20:58 45.60809 9.98727 4218 ft 195 kts 314°
2026-04-20 20:58 45.61594 9.97226 4064 ft 185 kts 299°
2026-04-20 20:58 45.62114 9.95586 3891 ft 180 kts 289°
2026-04-20 20:59 45.62472 9.93877 3698 ft 179 kts 285°
2026-04-20 20:59 45.62793 9.92167 3496 ft 175 kts 284°
2026-04-20 20:59 45.63096 9.90542 3335 ft 164 kts 284°
2026-04-20 20:59 45.63383 9.89000 3175 ft 158 kts 284°
2026-04-20 21:00 45.63661 9.87495 2957 ft 156 kts 284°
2026-04-20 21:00 45.63933 9.85996 2724 ft 156 kts 284°
2026-04-20 21:00 45.64204 9.84504 2525 ft 154 kts 284°
2026-04-20 21:00 45.64484 9.83030 2307 ft 153 kts 285°
2026-04-20 21:01 45.64760 9.81572 2103 ft 151 kts 284°
2026-04-20 21:01 45.65020 9.80114 1919 ft 152 kts 285°
2026-04-20 21:01 45.65295 9.78646 1744 ft 152 kts 286°
2026-04-20 21:01 45.65565 9.77188 1545 ft 150 kts 287°
2026-04-20 21:02 45.65832 9.75755 1349 ft 150 kts 287°
2026-04-20 21:02 45.66108 9.74305 1114 ft 150 kts 287°
2026-04-20 21:02 45.66376 9.72875 876 ft 148 kts 287°
2026-04-20 21:02 45.66629 9.71520 790 ft 129 kts 284°
2026-04-20 21:03 45.66810 9.70552 790 ft 76 kts 284°
2026-04-20 21:03 45.66886 9.70124 790 ft 21 kts 277°
2026-04-20 21:03 45.66858 9.69936 790 ft 17 kts 238°
2026-04-20 21:03 45.66784 9.69862 790 ft 9 kts 159°
2026-04-20 21:04 45.66760 9.69925 790 ft 5 kts 109°
2026-04-20 21:04 45.66742 9.69958 790 ft 4 kts 156°
2026-04-20 21:04 45.66714 9.69948 790 ft 5 kts 206°
2026-04-20 21:04 45.66695 9.69938 790 ft 2 kts 194°
2026-04-20 21:05 45.66677 9.69931 790 ft 4 kts 195°
2026-04-20 21:05 45.66663 9.69926 790 ft 2 kts 195°
2026-04-20 21:05 45.66652 9.69922 790 ft 1 kts 195°